Shelbyville, IN

6:49 PM EST on November 16, 2019 (GMT -0500)
Shelbyville Municipal

Weather History for KGEZ - September, 2019

Change the Weather History Date:

Monday, September 30, 2019

  Actual Average Record
Temperature  
Mean Temperature 79 °F 60 °F  
Max Temperature 93 °F 72 °F 93 °F (2019)
Min Temperature 65 °F 47 °F 37 °F (2003)
Degree Days  
Heating Degree Days 0 7  
Month to date heating degree days 79  
Since 1 July heating degree days 85  
Cooling Degree Days 12 1  
Month to date cooling degree days 93  
Year to date cooling degree days 899  
Growing Degree Days 28 (Base 50)    
Moisture  
Dew Point 65 °F    
Average Humidity 68    
Maximum Humidity 93    
Minimum Humidity 38    
Precipitation  
Precipitation 0.00 in 0.12 in 0.13 in (2016)
Month to date precipitation 0.75 3.17  
Year to date precipitation 32.21 33.45  
Sea Level Pressure  
Sea Level Pressure 30.08 in    
Wind  
Wind Speed 5 mph (SSW)    
Max Wind Speed 18 mph    
Max Gust Speed 27 mph    
Visibility 10 miles    
Events      
T = Trace of Precipitation, MM = Missing Value Source: NWS Daily Summary

Daily Weather History Graph

Daily Weather History Graph

Search for Another Location

Airport or City:

Astronomy

Sep. 30, 2019 Rise Set
Actual Time 7:38 AM EDT 7:27 PM EDT
Civil Twilight 7:11 AM EDT 7:54 PM EDT
Nautical Twilight 6:40 AM EDT 8:25 PM EDT
Astronomical Twilight 6:08 AM EDT 8:57 PM EDT
Moon 9:41 AM EDT (9/30) 9:03 PM EDT (9/30)
Length of Visible Light 12h 43m
Length of Day
11h 49m
Waxing Crescent, 5% of the Moon is Illuminated
Sep 30
Waxing Crescent
Oct 5
First Quarter
Oct 13
Full
Oct 21
Last Quarter
Oct 27
New

Hourly Weather History & Observations

Time (EDT) Temp. Heat Index Dew Point Humidity Pressure Visibility Wind Dir Wind Speed Gust Speed Precip Events Conditions
12:53 AM 72.0 °F - 66.0 °F 81% 30.10 in 10.0 mi SE 5.8 mph - N/A   Clear
1:53 AM 69.1 °F - 64.9 °F 87% 30.11 in 10.0 mi Calm Calm - N/A   Clear
2:53 AM 66.9 °F - 64.0 °F 90% 30.11 in 10.0 mi Calm Calm - N/A   Clear
3:53 AM 66.9 °F - 63.0 °F 87% 30.10 in 10.0 mi Calm Calm - N/A   Clear
4:53 AM 66.9 °F - 64.0 °F 90% 30.10 in 9.0 mi South 3.5 mph - N/A   Clear
5:53 AM 66.9 °F - 64.0 °F 90% 30.11 in 9.0 mi South 4.6 mph - N/A   Clear
6:53 AM 64.9 °F - 62.1 °F 90% 30.12 in 8.0 mi Calm Calm - N/A   Clear
7:53 AM 66.9 °F - 64.0 °F 90% 30.13 in 7.0 mi South 4.6 mph - N/A   Clear
8:53 AM 72.0 °F - 66.9 °F 84% 30.13 in 8.0 mi SSE 3.5 mph - N/A   Clear
9:53 AM 78.1 °F - 66.9 °F 68% 30.14 in 10.0 mi SSW 3.5 mph - N/A   Clear
10:53 AM 82.0 °F 84.5 °F 66.9 °F 60% 30.14 in 10.0 mi SSW 5.8 mph - N/A   Clear
11:53 AM 87.1 °F 89.2 °F 66.0 °F 49% 30.13 in 10.0 mi SSW 9.2 mph - N/A   Clear
12:53 PM 90.0 °F 92.8 °F 66.9 °F 46% 30.11 in 10.0 mi SSW 10.4 mph 18.4 mph N/A   Partly Cloudy
1:53 PM 91.0 °F 92.6 °F 64.0 °F 41% 30.09 in 10.0 mi SW 13.8 mph 24.2 mph N/A   Partly Cloudy
2:53 PM 91.9 °F 93.3 °F 64.0 °F 39% 30.06 in 10.0 mi WSW 10.4 mph 25.3 mph N/A   Scattered Clouds
3:53 PM 91.0 °F 91.9 °F 63.0 °F 39% 30.05 in 10.0 mi WSW 11.5 mph - N/A   Partly Cloudy
4:53 PM 91.0 °F 91.9 °F 63.0 °F 39% 30.03 in 10.0 mi WSW 10.4 mph 19.6 mph N/A   Clear
5:53 PM 90.0 °F 91.3 °F 64.0 °F 42% 30.02 in 10.0 mi WSW 11.5 mph - N/A   Clear
6:53 PM 87.1 °F 88.3 °F 64.0 °F 46% 30.02 in 10.0 mi SW 8.1 mph - N/A   Clear
7:53 PM 80.1 °F 81.9 °F 64.9 °F 60% 30.02 in 10.0 mi South 3.5 mph - N/A   Clear
8:53 PM 73.9 °F - 64.9 °F 73% 30.02 in 10.0 mi South 3.5 mph - N/A   Clear
9:53 PM 72.0 °F - 64.9 °F 78% 30.03 in 10.0 mi South 3.5 mph - N/A   Clear
10:53 PM 72.0 °F - 64.9 °F 78% 30.03 in 10.0 mi SSE 4.6 mph - N/A   Clear
11:53 PM 70.0 °F - 64.0 °F 81% 30.03 in 10.0 mi SSE 4.6 mph - N/A   Clear